Temp
15 15 16 17 18 17 17 18 18 18 18 18 18 18 18 17 17 17 16 16 16 15 15 14 14 13 13 12 12 12 11 11 10 10 10 9 9 8 8 8 8 7 7 7 7 7 6 6 6 6 6 6 6 6 6 6 6 6 7 7 7 7 8 8 9 10 11 11 12 13 13 13 14 14 15 15 15 15 15 15 16 16 16 17 17
16 15 15 17 18 17 17 18 18 18 18 18 18 18 18 17 17 17 16 16 16 15 15 14 14 13 13 12 12 11 11 11 10 10 10 9 9 8 8 8 7 7 7 7 6 6 6 6 6 6 6 6 6 6 6 6 6 6 6 7 7 7 7 7 7 8 9 10 10 11 12 13 13 13 14 14 14 15 15 15 15 15 16 16 16
16 15 15 17 17 15 15 16 17 17 17 17 17 18 18 17 17 17 16 16 15 15 15 14 14 13 13 12 12 11 11 10 10 10 9 9 8 8 8 7 7 7 7 6 6 6 6 6 6 6 6 6 6 6 6 6 6 6 6 6 6 6 6 6 7 7 8 8 9 10 11 11 12 12 13 13 14 14 14 15 15 15 15 15 16
16 15 16 17 16 14 14 14 15 16 17 17 17 18 18 17 17 16 16 16 15 15 14 14 13 13 13 12 12 11 11 10 10 9 9 9 8 8 7 7 7 7 6 6 6 6 6 6 6 6 6 6 6 6 6 6 6 6 6 6 6 6 6 6 6 7 7 7 8 8 9 10 10 11 12 13 13 13 14 14 14 15 15 15 15
14 15 15 16 15 15 15 15 14 15 16 16 17 17 18 17 16 16 16 15 15 14 14 13 13 13 13 12 12 11 10 10 9 9 8 8 8 7 7 7 7 6 6 6 6 6 6 6 6 6 6 6 6 6 6 6 6 6 6 6 6 6 6 6 6 6 6 7 7 7 8 8 9 10 11 12 13 13 13 13 14 14 14 15 15
14 14 14 15 15 17 16 15 14 15 15 16 16 16 17 17 16 16 15 15 14 14 13 13 13 12 12 12 11 10 10 9 9 8 8 7 7 7 6 6 6 6 6 6 6 6 6 6 6 6 6 6 6 6 6 6 6 6 6 6 6 6 6 6 6 6 6 6 6 7 7 7 8 9 10 11 12 12 13 13 13 14 14 14 14
13 13 14 14 15 15 15 14 14 15 15 16 16 16 16 16 16 16 15 14 14 13 13 13 12 12 11 11 10 10 9 9 8 8 7 7 7 6 6 6 6 6 5 5 5 5 5 5 5 5 5 5 5 5 5 5 5 5 5 5 5 6 6 6 6 6 6 6 6 6 6 7 7 8 9 10 11 12 12 12 12 13 13 13 13
12 13 13 14 14 14 14 14 14 14 15 16 16 16 16 16 15 15 15 14 14 13 13 12 12 11 11 10 10 9 9 8 8 7 7 7 7 6 6 6 5 5 5 5 5 5 5 5 5 5 5 5 5 5 5 5 5 5 5 5 5 5 5 5 5 5 6 6 6 6 6 6 7 7 8 9 10 11 12 12 12 12 12 12 12
12 12 13 13 14 14 13 13 13 14 14 15 16 16 15 15 15 15 14 14 13 13 12 12 11 10 10 9 9 8 8 7 7 7 7 7 6 6 6 5 5 5 5 5 5 5 5 5 5 5 5 5 5 5 5 5 5 5 5 5 5 5 5 5 5 5 6 6 6 6 6 6 6 7 7 8 9 10 11 11 11 11 12 11 12
12 12 12 13 14 14 13 13 13 13 14 14 15 15 14 15 14 14 14 13 13 12 12 11 11 10 9 9 8 8 8 7 7 7 7 7 6 6 6 5 5 5 4 4 4 5 5 4 4 4 4 4 4 4 4 4 4 4 4 4 4 4 4 4 4 5 5 6 6 6 6 6 6 6 7 7 8 9 9 10 10 11 11 11 11
12 12 12 13 13 13 13 13 13 13 14 14 14 14 14 14 14 13 13 13 12 12 12 11 10 10 9 9 8 8 7 7 7 7 7 6 6 6 5 5 5 4 4 4 4 4 4 4 4 4 4 4 4 4 4 4 4 4 4 4 4 4 4 4 4 4 4 5 5 6 6 6 6 6 6 7 7 8 8 9 9 9 10 10 10
11 11 12 12 12 12 13 13 13 13 14 14 13 13 13 13 13 12 12 12 12 11 11 10 10 9 9 8 8 8 7 7 7 7 7 6 6 6 5 5 4 4 4 4 4 4 4 4 3 3 3 3 3 3 3 3 4 4 4 4 4 4 4 4 4 4 4 4 5 5 5 6 6 6 6 6 7 7 8 8 8 8 9 9 9
11 11 11 11 12 12 12 12 12 12 13 12 11 11 11 12 12 11 11 11 11 11 10 10 9 9 9 8 8 8 7 7 7 7 6 6 6 5 5 5 4 4 4 4 4 4 4 3 3 3 3 3 3 3 3 3 3 3 3 3 3 4 4 4 4 4 4 4 4 4 5 5 5 6 6 6 6 7 7 7 8 8 8 8 9
11 11 11 11 11 12 12 12 12 11 11 11 10 10 11 11 11 11 11 11 11 10 9 9 9 9 8 8 8 8 8 7 7 7 6 6 6 5 5 5 4 4 4 4 4 4 3 3 3 2 2 2 2 2 2 2 3 3 3 3 3 3 3 3 3 4 4 3 3 4 4 4 5 5 5 6 6 6 6 7 7 7 8 8 8
10 11 11 10 10 11 12 12 11 11 11 10 10 10 10 11 11 11 11 11 10 10 9 9 9 9 8 8 8 8 8 8 7 7 6 6 6 5 5 5 4 4 4 4 4 3 3 3 2 2 2 2 2 2 2 2 2 2 2 3 3 3 3 3 3 3 3 3 3 3 3 4 4 4 5 5 5 5 6 6 6 7 7 7 7
9 10 10 10 10 10 11 11 11 10 10 10 10 10 10 11 11 11 10 10 10 10 9 9 9 9 8 8 8 8 8 8 7 7 6 6 6 5 5 4 4 4 4 3 3 3 3 2 2 2 1 1 1 1 1 1 2 2 2 2 2 2 3 3 3 3 3 3 3 3 3 3 3 4 4 4 4 5 5 5 6 6 6 7 7
8 9 9 10 10 10 10 10 10 10 10 10 10 10 11 11 10 10 10 10 10 10 9 9 9 9 8 8 8 8 8 8 7 7 7 6 6 5 5 4 4 3 3 3 3 2 2 2 2 1 1 1 1 1 1 1 1 1 1 2 2 2 2 2 3 3 3 3 3 3 3 3 3 3 3 4 4 4 4 4 4 5 6 6 6
8 8 9 9 9 10 10 10 10 10 10 10 9 9 10 11 10 11 11 10 10 10 9 9 9 8 8 8 8 8 8 7 7 7 7 6 5 5 4 4 3 3 3 3 2 2 2 1 1 1 1 1 1 1 0 0 0 0 1 1 1 2 2 2 2 2 2 2 2 3 3 3 3 3 3 3 3 4 4 4 4 5 5 6 6
8 8 9 9 9 9 9 10 10 10 9 9 10 10 11 11 11 11 11 10 10 10 9 9 9 8 8 8 8 8 8 7 7 7 6 6 5 5 4 3 3 3 3 2 2 1 1 1 1 1 1 0 0 0 0 0 0 0 0 0 1 1 1 1 1 1 2 2 2 2 2 2 2 3 3 3 3 3 4 4 4 5 5 5 6
7 8 9 9 9 9 9 9 10 10 10 10 11 11 11 11 10 10 10 10 10 9 9 9 9 8 8 8 8 8 7 7 7 7 6 6 5 5 4 3 3 3 2 2 1 1 1 1 1 0 0 0 -0 -0 -0 -0 -0 -0 -0 -0 0 0 0 1 1 1 1 1 2 2 2 2 2 3 3 3 4 4 4 4 4 4 5 5 6
7 7 8 9 9 9 9 9 10 10 10 10 11 11 11 10 10 10 10 9 9 9 9 9 9 9 8 8 7 7 7 7 7 6 6 5 5 4 4 4 3 2 2 1 1 0 0 0 0 0 -0 -0 -0 -1 -1 -1 -1 -1 -0 -0 -0 -0 -0 0 0 0 1 1 1 1 1 2 2 2 3 3 3 4 4 4 4 5 5 5 5
6 7 8 9 9 9 9 9 9 9 10 10 11 10 10 10 9 9 9 9 9 9 9 9 9 8 8 7 7 7 7 6 6 6 6 5 5 4 4 4 3 2 1 1 0 0 -0 -0 -0 -1 -1 -1 -1 -1 -1 -2 -2 -1 -1 -1 -1 -1 -1 -1 -1 -1 -0 -0 0 0 1 1 1 2 2 3 3 3 4 4 4 5 5 5 5
6 7 8 9 9 9 9 8 8 9 10 10 10 10 9 9 9 9 9 9 9 9 9 9 8 8 7 7 7 7 7 6 6 6 6 5 5 4 4 3 3 2 1 0 -0 -0 -1 -1 -1 -1 -1 -2 -2 -2 -2 -2 -2 -2 -2 -2 -2 -1 -1 -1 -1 -1 -1 -1 -1 -0 0 0 1 1 2 2 3 3 4 4 4 5 5 5 5
6 7 8 9 9 9 9 8 8 8 9 10 10 10 9 9 9 9 10 10 9 9 9 8 8 7 7 7 7 7 6 6 6 6 6 5 5 4 4 3 2 2 1 0 -0 -1 -1 -2 -2 -2 -2 -2 -2 -2 -2 -2 -2 -2 -2 -2 -2 -2 -1 -1 -1 -1 -1 -1 -1 -1 -0 -0 0 1 1 2 2 3 3 4 4 5 5 5 5
6 7 8 9 9 8 8 8 7 7 8 10 10 9 9 9 10 10 10 10 9 9 8 8 7 7 7 7 7 7 6 6 6 6 5 5 4 4 3 3 2 1 0 -1 -1 -2 -2 -2 -2 -2 -2 -2 -2 -2 -2 -2 -2 -2 -2 -1 -1 -1 -1 -1 -1 -1 -1 -1 -1 -1 -1 -0 0 1 1 1 2 2 3 4 4 4 5 5 5
7 8 8 8 8 7 7 8 7 8 9 10 10 10 9 10 10 10 10 9 9 8 8 7 7 7 7 6 6 6 6 6 5 5 5 4 4 3 3 2 1 0 -1 -1 -2 -2 -2 -2 -2 -2 -2 -2 -2 -2 -2 -2 -2 -2 -1 -1 -1 -1 -1 -1 -1 -1 -1 -1 -1 -1 -1 -0 -0 0 1 1 1 2 2 3 4 4 4 4 5
7 8 8 8 8 8 8 8 8 8 9 10 10 10 10 10 10 10 9 9 8 8 8 7 7 7 7 6 6 6 5 5 5 4 4 3 3 2 1 1 0 -1 -1 -2 -2 -2 -2 -2 -2 -2 -2 -2 -2 -2 -2 -2 -2 -1 -1 -1 -1 -1 -1 -1 -1 -1 -1 -1 -1 -1 -1 -0 -0 0 1 1 1 2 2 3 3 4 4 4 4
7 8 8 8 8 8 8 8 8 9 9 9 9 10 10 10 9 9 9 8 8 8 8 7 7 7 6 6 5 5 5 4 4 3 3 2 1 1 0 -0 -1 -2 -2 -2 -2 -2 -2 -2 -2 -2 -2 -2 -2 -2 -2 -1 -1 -1 -1 -1 -1 -1 -1 -1 -1 -1 -1 -1 -1 -1 -1 -0 -0 0 0 1 1 1 2 3 3 3 4 4 3
7 7 7 8 8 7 7 8 9 9 8 9 9 9 9 9 9 9 8 8 8 8 8 7 7 6 6 5 5 4 4 3 3 3 2 1 1 -0 -1 -1 -2 -2 -2 -2 -2 -2 -2 -2 -2 -2 -2 -2 -2 -2 -2 -1 -1 -1 -1 -1 -1 -1 -1 -1 -1 -1 -1 -1 -1 -1 -1 -1 -0 0 0 1 1 1 2 2 3 3 3 3 3
7 7 7 7 7 7 7 8 8 8 8 9 9 9 9 9 9 9 8 8 8 8 7 7 7 6 6 5 4 4 3 3 3 2 2 1 0 -1 -1 -2 -2 -2 -2 -2 -2 -2 -2 -2 -2 -2 -2 -2 -2 -2 -2 -2 -1 -1 -1 -1 -1 -1 -1 -1 -1 -1 -1 -1 -1 -1 -1 -1 -0 0 0 1 1 1 2 2 3 3 3 3 3
6 6 7 7 7 8 9 8 8 8 9 9 9 9 9 9 9 8 8 8 8 8 7 7 6 5 5 5 4 3 3 3 2 2 1 -0 -1 -1 -2 -2 -2 -2 -2 -2 -2 -2 -2 -2 -2 -2 -2 -2 -2 -2 -2 -2 -2 -2 -2 -1 -1 -1 -1 -1 -1 -1 -1 -1 -1 -1 -1 -1 -0 -0 0 1 1 2 2 2 3 3 3 3 3
5 5 6 7 8 9 8 7 7 9 10 10 9 9 9 9 8 8 8 8 8 7 7 6 6 5 5 4 4 3 2 2 1 1 -0 -1 -2 -2 -2 -2 -2 -2 -2 -3 -3 -3 -2 -2 -2 -2 -2 -2 -2 -2 -2 -2 -2 -2 -2 -2 -1 -1 -1 -1 -0 -0 -0 -1 -1 -1 -1 -0 -0 0 0 1 1 2 2 2 3 3 3 3 4
6 6 7 8 9 8 7 7 9 10 10 9 9 9 9 9 8 8 8 8 8 7 7 6 5 5 5 4 3 3 2 2 1 0 -1 -1 -2 -2 -3 -3 -3 -3 -3 -3 -3 -3 -3 -2 -2 -2 -2 -2 -2 -2 -2 -2 -2 -2 -2 -2 -2 -1 -1 -1 -0 -0 -0 -0 -0 -0 -0 -0 0 0 1 1 1 2 2 2 3 3 3 3 4
8 9 9 8 8 7 8 9 10 10 9 9 9 9 9 9 8 8 8 8 7 7 6 6 5 5 4 3 3 2 2 1 1 0 -1 -2 -2 -3 -3 -3 -3 -3 -3 -3 -3 -3 -3 -3 -3 -3 -3 -2 -2 -2 -2 -2 -2 -2 -2 -2 -2 -2 -1 -1 -1 -0 0 0 0 0 0 0 0 0 1 1 1 2 2 2 3 3 3 3 3
9 9 9 8 8 9 10 10 10 10 9 9 9 9 9 9 8 8 8 8 7 7 6 6 5 4 4 3 3 2 2 2 1 0 -1 -2 -3 -3 -3 -3 -3 -3 -3 -3 -3 -3 -3 -3 -3 -3 -3 -3 -3 -3 -3 -2 -2 -2 -2 -2 -2 -2 -1 -1 -1 -0 0 1 1 0 0 1 1 1 1 1 1 2 2 2 2 3 3 3 3
9 9 9 10 10 10 10 10 10 9 9 9 9 9 9 8 8 8 8 8 7 6 6 5 5 4 3 3 2 2 2 2 1 0 -0 -2 -3 -3 -3 -3 -3 -3 -3 -3 -3 -3 -3 -3 -3 -3 -3 -3 -3 -3 -3 -3 -3 -2 -2 -2 -2 -2 -2 -1 -1 -0 0 0 1 1 1 1 1 1 1 1 2 2 2 2 2 3 3 3 3
8 9 9 10 10 10 10 10 10 9 9 9 9 9 8 8 8 8 8 7 7 6 5 5 4 4 3 2 2 2 2 2 1 1 0 -1 -2 -3 -3 -3 -3 -3 -3 -3 -3 -3 -3 -3 -3 -3 -3 -3 -3 -3 -3 -3 -3 -3 -2 -2 -2 -2 -2 -1 -1 -0 -0 0 1 1 1 1 1 1 1 1 2 2 2 2 2 3 3 3 2
8 9 9 10 10 10 10 10 9 9 9 9 9 8 8 8 8 8 7 7 6 6 5 4 4 3 3 2 2 2 2 2 2 1 0 -1 -2 -3 -3 -3 -3 -3 -3 -3 -3 -3 -3 -3 -3 -3 -3 -3 -3 -3 -3 -3 -3 -3 -3 -2 -2 -2 -1 -1 -1 -0 0 0 1 1 1 1 1 2 2 2 2 2 2 2 2 2 2 2 2
8 9 10 10 10 10 10 10 9 9 9 8 8 8 8 8 8 7 7 6 6 5 4 4 3 3 2 2 2 2 2 1 1 -0 -2 -2 -3 -3 -3 -3 -3 -3 -3 -3 -3 -3 -3 -3 -3 -3 -3 -3 -3 -3 -3 -3 -3 -3 -3 -2 -2 -2 -1 -1 -1 -0 -0 0 1 1 1 1 2 2 2 2 2 2 2 2 2 2 2 2 2
9 10 10 10 10 10 9 9 9 8 8 8 8 8 8 8 7 7 6 6 5 5 4 3 3 2 2 1 2 1 1 0 -0 -1 -2 -3 -3 -3 -3 -3 -3 -3 -3 -3 -3 -3 -3 -3 -3 -3 -3 -3 -3 -3 -3 -3 -3 -3 -3 -3 -2 -2 -2 -1 -1 -1 -0 0 1 1 1 1 2 2 2 2 2 3 2 2 2 2 2 2 2
10 10 10 10 9 9 8 8 8 8 8 8 8 8 8 7 7 6 6 5 5 4 3 3 2 2 1 1 1 1 0 -0 -0 -1 -2 -3 -3 -3 -3 -3 -3 -3 -3 -3 -3 -3 -3 -3 -3 -3 -3 -3 -3 -3 -3 -3 -3 -3 -3 -3 -2 -2 -2 -1 -1 -1 -0 0 0 1 1 1 2 2 2 2 2 3 3 2 2 2 2 1 1
10 9 9 8 8 8 7 7 8 8 8 8 7 7 7 7 6 5 5 5 4 4 3 2 2 1 1 1 1 1 0 0 -0 -1 -1 -2 -2 -2 -2 -3 -3 -3 -3 -3 -3 -3 -3 -3 -3 -3 -3 -3 -3 -3 -3 -3 -3 -3 -3 -3 -3 -2 -2 -1 -1 -1 -0 -0 0 1 1 1 2 2 2 2 2 2 2 2 2 1 1 1 0
9 8 8 7 7 7 7 7 8 8 7 7 6 6 5 5 5 4 4 4 3 3 2 2 1 1 1 1 1 1 1 0 -0 -1 -1 -1 -2 -2 -2 -2 -3 -3 -3 -3 -3 -3 -3 -3 -3 -3 -3 -3 -3 -3 -3 -3 -3 -3 -3 -3 -3 -2 -2 -2 -1 -1 -1 -0 0 0 1 1 1 1 2 2 2 2 1 1 1 1 0 0 0
8 8 8 7 7 7 7 7 7 6 6 5 5 4 4 4 3 3 3 2 2 1 1 1 0 0 1 1 1 2 1 1 -0 -1 -1 -1 -1 -1 -2 -2 -3 -3 -3 -3 -3 -3 -3 -3 -3 -3 -3 -3 -3 -3 -3 -3 -3 -3 -3 -3 -2 -2 -2 -2 -1 -1 -1 -1 -0 0 0 1 1 1 1 1 1 1 1 0 0 -0 -0 -0 -0
8 8 7 7 6 6 6 5 5 5 4 4 3 3 3 2 2 2 1 1 0 0 -0 -0 -0 0 0 0 1 1 0 -1 -1 -1 -1 -1 -1 -1 -2 -2 -2 -3 -3 -3 -3 -3 -3 -3 -3 -3 -3 -3 -3 -3 -3 -3 -3 -2 -2 -2 -2 -2 -2 -2 -1 -1 -1 -1 -0 -0 0 0 0 0 0 1 1 0 0 -0 -0 -0 -0 -0 -0
7 7 6 6 5 4 4 4 4 3 3 3 3 2 1 1 1 0 -0 -0 -1 -1 -1 -1 -1 -2 -2 -2 -2 -2 -2 -3 -2 -2 -2 -2 -2 -1 -1 -2 -2 -2 -3 -3 -3 -3 -3 -3 -3 -3 -3 -3 -3 -3 -3 -3 -3 -2 -2 -2 -2 -2 -2 -1 -1 -1 -1 -1 -1 -0 -0 -0 -0 -0 0 0 -0 -0 -0 -0 -0 -0 -0 -0 -0
5 5 4 4 4 3 3 3 2 2 2 1 1 -0 -1 -1 -2 -2 -2 -3 -3 -3 -4 -4 -4 -4 -5 -5 -4 -4 -4 -4 -4 -4 -3 -2 -2 -2 -2 -2 -2 -2 -2 -3 -3 -3 -3 -3 -3 -3 -3 -3 -3 -3 -3 -3 -3 -2 -2 -2 -2 -2 -1 -1 -1 -1 -1 -1 -1 -1 -0 -1 -1 -1 -0 -0 -0 -0 -1 -1 -1 -0 -0 -0 -0
3 3 3 2 2 2 1 1 1 0 -1 -2 -3 -3 -3 -4 -4 -4 -5 -5 -5 -5 -5 -5 -6 -6 -6 -6 -6 -5 -5 -5 -5 -5 -4 -3 -2 -2 -2 -2 -2 -2 -3 -3 -3 -3 -3 -3 -3 -3 -3 -3 -3 -3 -3 -3 -3 -2 -2 -2 -2 -1 -1 -1 -1 -1 -1 -1 -1 -1 -1 -1 -1 -1 -1 -1 -1 -1 -1 -1 -1 -1 -1 -1 -1
2 1 1 1 0 -0 -1 -1 -2 -3 -3 -4 -4 -4 -4 -5 -5 -5 -5 -5 -6 -6 -6 -6 -6 -6 -6 -6 -6 -6 -6 -6 -5 -5 -5 -4 -3 -2 -2 -2 -2 -2 -3 -3 -3 -3 -3 -3 -3 -3 -3 -3 -3 -3 -3 -3 -3 -3 -2 -2 -1 -1 -1 -1 -1 -1 -1 -1 -1 -1 -1 -1 -1 -1 -1 -1 -1 -1 -1 -1 -1 -1 -1 -1 -1
0 -1 -1 -2 -2 -3 -3 -3 -4 -4 -4 -4 -4 -4 -5 -5 -5 -5 -5 -5 -6 -6 -6 -6 -6 -7 -7 -7 -7 -7 -7 -6 -6 -6 -5 -5 -4 -3 -2 -2 -2 -2 -2 -3 -3 -3 -3 -3 -3 -3 -3 -3 -3 -3 -3 -3 -3 -3 -2 -2 -1 -1 -1 -1 -1 -1 -1 -1 -1 -1 -1 -1 -1 -1 -1 -1 -1 -1 -1 -1 -1 -1 -1 -1 -1
-2 -3 -3 -4 -4 -4 -4 -4 -4 -4 -4 -4 -4 -4 -4 -5 -5 -5 -5 -5 -6 -6 -6 -7 -7 -7 -7 -7 -7 -7 -7 -7 -7 -6 -6 -6 -6 -5 -4 -3 -2 -2 -2 -2 -2 -2 -3 -3 -3 -3 -3 -3 -3 -3 -3 -3 -3 -3 -2 -2 -1 -1 -1 -1 -1 -1 -1 -1 -1 -1 -1 -1 -1 -1 -1 -1 -1 -1 -1 -1 -1 -1 -1 -1 -1
Height
787 788 790 792 793 792 793 795 797 798 799 801 803 804 806 807 808 810 812 813 815 816 817 818 819 820 821 822 823 823 823 824 824 825 826 827 827 828 828 828 828 828 828 828 828 827 827 827 826 826 826 825 825 825 824 824 823 823 823 822 821 820 819 818 815 810 805 805 805 804 804 805 804 804 803 802 802 802 802 802 802 801 801 801 801
782 783 786 789 789 789 790 792 794 796 797 798 800 802 804 805 807 808 809 811 813 814 815 817 818 819 820 821 821 822 822 822 823 823 824 825 825 826 826 826 826 826 826 826 826 826 826 826 825 825 825 824 824 824 823 823 823 822 822 821 820 820 819 817 815 812 806 803 803 803 802 802 802 802 802 801 800 800 799 799 799 799 798 798 798
779 781 783 785 786 787 788 790 791 793 794 796 798 799 801 803 805 806 808 809 811 812 813 815 816 817 818 819 820 820 821 821 821 822 823 823 823 823 824 824 824 824 824 824 824 824 824 824 824 824 824 823 823 823 822 822 821 821 820 820 819 818 817 816 814 812 807 803 801 801 801 800 800 799 799 799 798 798 797 796 796 796 796 795 795
777 778 781 782 784 786 789 790 791 792 792 793 795 797 799 800 802 804 806 807 809 810 811 813 814 815 816 817 818 819 820 820 821 821 822 822 822 822 822 822 822 822 822 822 822 822 822 822 822 822 822 822 822 821 821 821 820 820 819 818 818 816 815 814 813 811 808 803 800 799 799 798 797 797 797 796 796 796 795 794 794 793 793 793 792
775 776 777 779 780 783 784 785 788 789 789 790 793 795 797 798 800 802 804 806 808 809 810 811 812 813 814 816 817 818 819 819 820 821 821 821 821 821 821 821 820 820 820 820 820 820 820 820 820 820 820 820 820 820 819 819 819 818 817 816 816 815 813 812 811 809 807 803 799 797 797 796 795 795 795 794 793 793 793 792 792 792 791 791 790
773 773 775 775 775 776 776 777 780 783 785 787 790 793 795 796 799 801 803 805 806 808 809 810 811 812 813 814 815 816 817 818 819 820 820 820 820 820 820 819 819 819 818 818 818 818 818 817 818 818 818 818 818 817 817 817 816 816 815 814 814 813 812 811 810 808 806 803 799 796 795 795 794 793 793 793 791 790 790 789 789 790 789 788 787
770 771 772 772 772 772 772 773 775 778 780 782 786 790 793 794 796 799 801 803 805 807 808 809 810 811 812 813 814 815 816 817 818 818 819 819 819 819 818 818 818 817 817 816 816 815 815 815 815 815 815 815 815 814 814 814 813 813 812 812 811 811 810 808 808 807 805 802 799 795 793 793 793 791 791 791 790 788 787 787 786 787 787 786 785
768 768 769 769 770 770 770 771 773 775 778 780 782 786 789 791 794 797 799 802 804 806 808 809 810 811 812 813 814 815 815 816 816 817 817 818 818 817 817 816 816 815 815 814 814 813 813 812 812 812 812 812 811 811 811 810 810 809 809 809 808 807 807 806 805 804 803 800 798 795 792 790 790 790 789 789 788 786 785 785 784 784 784 784 783
767 767 767 767 767 768 769 771 773 775 777 778 780 782 784 787 790 794 797 799 802 805 807 809 810 811 812 813 814 815 815 815 815 816 816 816 816 816 815 814 814 813 812 811 811 811 810 810 809 809 809 809 808 808 807 807 807 805 805 805 804 804 803 802 802 801 800 798 796 794 791 788 788 788 787 787 786 785 784 783 782 781 781 781 781
768 767 766 766 765 766 767 768 771 774 775 776 777 779 781 784 787 790 794 797 799 802 805 807 809 810 810 812 813 814 814 814 814 814 815 815 814 814 813 812 812 811 810 809 809 808 808 807 806 806 806 805 805 804 803 803 803 802 801 801 801 800 799 798 798 798 797 795 793 792 790 786 786 786 786 785 785 784 783 782 781 780 780 779 778
768 767 766 765 765 766 766 766 768 770 772 773 774 775 777 780 783 787 792 794 797 800 803 806 808 810 810 810 812 813 813 813 813 813 813 813 813 812 812 811 810 810 809 808 807 806 805 804 804 803 802 802 801 800 799 799 798 797 797 797 797 797 796 795 794 794 794 793 791 790 788 785 783 784 783 783 783 783 782 781 781 780 778 777 776
767 766 766 766 765 765 765 765 766 767 769 771 772 773 775 777 779 784 789 792 795 798 801 804 807 809 810 810 811 812 812 812 812 812 812 812 811 811 810 809 809 808 807 806 805 804 803 802 801 800 799 798 797 796 795 794 793 792 792 792 792 792 792 792 791 791 791 789 788 787 786 783 781 781 781 781 781 781 780 780 779 779 778 776 775
765 765 765 765 765 765 765 765 765 766 768 770 772 775 779 780 781 786 790 792 795 799 801 804 806 808 809 809 809 810 810 810 810 810 810 809 809 808 808 807 807 806 805 804 803 802 800 799 798 797 796 795 794 792 791 790 789 788 787 787 787 787 787 787 787 787 787 786 784 782 782 782 780 778 779 780 779 779 778 778 778 777 776 775 774
764 763 762 763 764 764 764 764 765 766 768 770 772 775 778 780 782 786 790 792 795 798 801 803 806 807 807 808 808 808 809 809 808 808 808 807 807 806 806 805 804 803 803 802 800 799 798 797 795 793 792 791 790 789 787 786 785 783 783 782 781 781 782 782 782 783 782 782 780 777 778 779 777 776 777 778 777 777 776 776 775 775 774 773 772
762 761 760 760 761 762 762 763 764 765 767 768 770 773 775 778 781 784 788 791 794 797 799 802 804 805 806 807 807 807 807 807 807 807 806 806 805 804 803 802 802 801 800 799 798 797 796 794 792 791 789 788 787 785 784 783 781 780 778 777 777 777 777 777 778 778 777 777 775 774 774 774 774 773 774 775 775 774 774 773 773 772 771 770 769
759 759 758 758 758 759 760 761 761 763 764 765 768 770 772 776 780 783 786 789 792 794 797 799 801 803 804 806 807 807 806 806 805 805 804 803 802 801 801 800 799 798 797 796 795 794 793 791 789 787 786 784 783 783 782 781 778 777 775 773 772 772 771 772 773 772 772 772 771 770 770 770 770 770 770 771 771 771 772 770 769 770 769 767 766
756 756 756 755 755 756 757 758 759 760 761 763 766 768 769 771 776 780 781 784 787 790 793 796 798 800 802 804 805 805 805 804 803 803 802 801 800 799 798 797 796 795 793 792 792 790 789 788 786 784 782 781 780 779 779 778 776 774 772 770 768 767 766 767 768 767 767 767 766 766 765 765 766 765 765 766 766 768 769 766 765 767 766 764 762
753 753 753 752 753 753 754 755 756 757 759 760 763 766 768 770 773 777 778 780 784 788 792 794 797 799 800 801 802 802 802 802 802 801 801 799 798 796 795 794 793 791 790 788 787 786 785 784 782 781 779 778 777 776 776 775 773 771 769 767 765 763 762 763 763 762 763 762 761 761 760 760 760 760 760 760 761 764 764 760 761 765 763 760 759
751 750 750 751 751 751 751 752 753 755 756 757 760 763 766 770 773 775 777 779 783 786 790 792 795 797 798 799 799 800 800 800 800 800 799 797 796 794 793 791 789 788 786 784 782 781 780 779 778 777 775 774 773 772 772 772 769 767 766 764 761 759 759 759 758 758 758 757 756 756 755 755 755 755 754 755 756 758 757 756 758 760 758 756 757
748 748 748 749 749 749 749 750 751 753 754 755 757 761 765 770 773 775 777 780 782 784 787 790 792 795 796 796 797 798 798 799 799 798 796 795 793 792 790 789 786 784 782 780 778 777 776 775 774 773 771 770 769 768 768 767 766 763 762 761 757 755 756 755 754 754 753 751 751 751 750 750 750 750 749 749 750 751 751 751 753 753 752 752 753
746 746 747 747 746 747 748 749 750 751 753 754 756 760 765 769 772 775 777 779 781 783 785 788 790 792 794 795 796 796 797 797 796 795 794 792 791 789 788 786 783 780 778 776 775 773 772 770 769 768 767 766 764 764 762 762 761 759 757 756 753 752 753 751 750 750 748 747 746 746 745 745 745 745 744 744 744 745 746 746 746 747 747 747 748
744 745 745 745 745 746 747 749 750 751 752 754 756 760 764 768 771 774 775 777 780 782 784 786 789 791 793 794 795 795 795 795 794 792 791 789 788 787 785 782 780 777 774 772 771 770 768 766 765 763 763 761 760 759 757 756 756 754 752 750 749 749 748 746 746 746 744 742 742 740 740 740 740 739 739 738 739 740 740 741 741 741 742 742 743
741 742 742 743 744 745 746 749 752 753 753 754 755 759 763 768 771 773 774 776 779 781 783 786 789 791 792 793 794 794 794 793 791 789 788 786 785 784 781 779 777 775 772 769 768 766 764 762 760 759 758 757 755 754 752 751 750 748 746 745 743 743 742 741 740 740 738 737 736 734 734 735 734 733 733 733 734 735 735 735 736 736 736 737 737
738 738 739 740 741 743 746 748 752 756 756 754 755 759 763 768 771 772 774 776 779 781 783 786 789 791 792 792 793 792 791 790 788 786 785 783 782 780 778 776 774 772 769 766 764 762 760 758 756 755 753 752 750 748 747 745 743 741 739 738 737 736 735 734 734 733 732 731 730 728 728 728 728 727 728 728 729 730 731 731 731 731 731 732 732
735 734 736 737 739 742 745 746 751 755 756 755 757 761 765 768 770 772 773 776 778 780 783 786 788 790 790 790 790 789 788 786 784 783 782 780 778 777 775 773 771 768 766 762 760 758 756 754 752 750 749 747 745 743 740 738 736 734 733 732 731 730 729 727 727 726 724 723 722 720 720 721 721 721 722 724 725 726 726 726 727 727 728 728 729
731 731 733 735 737 741 744 747 751 755 756 757 760 763 766 768 770 772 773 775 777 780 783 785 787 788 788 788 787 785 784 782 781 780 779 777 775 773 771 769 766 764 762 759 757 755 752 750 748 746 745 743 740 738 735 732 731 729 727 726 725 724 722 721 720 719 717 716 714 713 713 714 715 716 717 719 719 720 721 722 722 723 724 725 725
728 729 731 733 736 739 743 747 751 753 756 759 761 764 767 769 770 771 772 774 777 780 782 784 786 786 786 785 784 782 781 780 779 778 776 774 772 769 767 764 762 761 759 756 754 752 749 747 745 743 740 738 735 733 730 728 726 724 722 721 719 718 716 715 713 712 710 709 708 707 708 709 710 711 712 713 713 715 717 718 718 718 720 722 721
726 727 728 731 734 737 741 745 749 752 757 761 764 766 767 769 770 771 772 774 777 779 782 783 784 784 783 782 781 780 779 779 777 776 773 771 769 767 765 763 761 759 757 755 752 749 746 744 741 739 736 733 730 728 726 724 722 720 718 716 714 712 711 709 708 706 705 703 703 703 703 704 705 705 706 707 708 710 712 713 714 715 717 717 717
724 725 727 730 734 739 744 747 749 753 759 763 765 767 767 768 769 770 772 774 776 778 780 781 782 782 781 781 780 780 778 777 776 774 772 770 768 766 764 762 760 758 756 753 750 746 743 741 738 735 732 730 727 725 722 720 718 716 713 711 709 707 706 704 702 700 699 698 698 698 698 699 699 700 701 702 703 705 707 708 709 711 712 712 712
721 723 726 729 735 740 745 748 751 756 760 763 765 766 766 767 768 769 772 774 776 777 779 780 780 780 780 780 780 779 778 777 775 773 771 769 768 766 764 762 759 756 753 751 747 744 741 738 735 733 730 728 725 722 719 717 714 711 709 707 705 703 701 699 697 695 694 693 693 692 693 694 694 695 697 697 698 700 702 704 705 706 707 707 707
720 723 726 730 735 740 744 748 753 757 760 762 763 764 765 766 768 770 772 774 775 777 778 778 779 779 779 779 779 779 778 776 774 772 770 768 767 765 762 760 757 754 751 748 745 742 739 736 733 731 728 725 723 720 717 714 711 708 705 703 701 699 696 694 692 690 689 688 688 688 689 689 690 691 692 693 695 696 698 699 700 701 702 702 703
721 726 730 732 736 740 744 749 753 756 758 760 761 762 763 765 767 770 772 773 775 776 777 778 778 778 778 778 778 777 777 775 773 771 769 767 765 763 760 757 754 751 749 746 743 740 738 735 732 729 726 723 720 717 714 711 708 705 702 699 696 694 692 690 688 686 685 684 684 684 684 685 686 687 688 690 691 692 693 694 695 696 697 698 699
722 729 733 734 737 742 747 750 752 754 756 758 759 760 762 764 766 769 771 773 775 776 776 777 777 777 777 778 778 778 777 775 773 770 768 766 763 760 758 755 752 749 747 745 742 739 736 733 730 727 724 721 717 714 711 708 705 702 699 696 693 691 688 686 684 682 681 680 679 679 680 681 682 683 684 686 687 689 690 691 692 692 693 694 695
724 729 733 735 739 744 747 748 750 752 754 756 758 760 762 765 767 769 771 773 774 775 775 776 776 777 777 778 778 778 776 774 771 769 766 763 761 758 756 753 750 748 746 743 741 738 735 732 729 725 722 719 715 712 709 706 702 699 696 693 690 687 685 682 680 678 677 675 675 675 676 677 678 679 680 682 683 685 686 687 688 689 690 690 691
728 730 734 737 740 743 745 746 749 751 754 756 758 761 763 766 768 770 771 772 773 774 774 775 776 777 778 778 778 777 774 772 769 766 763 761 759 756 754 752 749 746 744 742 740 737 734 731 727 724 720 717 713 710 706 703 700 697 693 690 687 684 681 679 677 675 673 672 671 671 672 673 674 675 677 678 680 681 683 684 685 686 687 687 688
731 733 736 738 740 742 744 747 749 751 754 756 759 762 764 767 768 769 770 771 772 773 774 776 777 777 777 777 776 775 772 770 767 764 762 760 758 756 753 751 748 746 743 741 739 736 733 730 726 722 719 715 711 707 704 700 697 694 691 687 684 681 678 676 674 672 670 669 668 668 668 669 670 672 673 675 676 677 679 680 681 683 683 684 685
732 734 736 738 740 742 745 748 750 753 755 758 761 763 765 767 768 769 769 770 771 773 775 776 776 776 776 775 774 773 771 769 766 764 761 759 757 755 753 751 749 746 744 741 738 735 732 729 725 721 717 713 709 705 701 698 694 691 688 685 681 678 676 673 670 669 667 665 664 664 665 665 666 668 670 671 673 674 676 677 679 680 680 681 682
733 735 737 739 741 744 747 749 752 754 757 760 762 764 765 766 767 768 769 770 771 773 774 775 775 775 774 773 772 771 769 767 765 762 760 758 757 755 754 752 749 747 744 741 738 735 731 727 723 719 715 711 707 703 700 696 692 689 685 682 679 676 673 670 667 665 664 662 661 661 661 662 663 664 666 668 669 671 673 674 676 677 678 679 681
735 737 739 741 743 746 748 751 753 756 758 761 762 764 765 766 766 767 769 770 772 773 774 774 774 773 773 772 771 769 767 765 763 762 761 759 757 756 754 752 750 747 744 741 737 734 730 726 722 718 714 710 706 702 698 695 691 687 683 680 676 673 670 667 665 663 661 660 658 658 657 658 659 661 663 665 667 668 670 672 673 675 676 678 680
737 739 741 743 746 748 750 752 755 757 759 761 762 763 764 765 766 768 769 770 771 772 773 773 773 773 772 771 770 768 767 765 764 763 762 760 758 757 755 753 750 747 744 741 737 733 730 725 721 717 713 709 705 701 697 693 689 685 682 679 675 672 669 666 664 661 659 657 656 655 655 655 656 658 660 662 664 666 668 670 672 673 674 677 679
739 741 743 745 747 749 752 754 756 758 760 761 762 764 765 766 767 768 769 770 771 771 772 772 772 772 771 770 769 769 767 766 765 764 762 761 759 757 755 753 750 747 744 740 737 733 729 725 721 717 713 709 705 700 696 692 688 685 681 678 674 671 668 666 663 661 658 657 655 654 653 654 655 656 658 660 662 665 666 668 670 672 674 676 678
742 743 745 747 749 751 754 756 758 759 760 762 763 764 766 767 768 769 769 770 770 770 770 771 771 771 771 770 769 768 767 766 765 764 762 761 760 758 756 753 750 747 744 741 737 734 730 726 722 717 713 709 705 700 696 692 688 684 681 677 674 671 669 666 664 661 659 657 656 654 654 654 654 656 657 659 661 663 665 667 670 672 674 677 679
744 746 748 750 752 753 756 757 758 760 761 762 764 766 767 768 769 769 769 769 769 769 770 771 771 771 771 770 769 768 767 766 765 764 762 761 760 759 757 754 751 748 745 741 738 735 731 727 723 718 714 710 706 701 697 693 689 685 682 678 675 673 670 667 664 662 660 659 657 656 656 655 655 656 657 659 661 663 665 667 670 672 675 678 680
747 748 750 752 753 755 757 758 759 761 762 764 766 767 768 769 769 769 769 769 769 770 770 771 771 771 770 770 769 768 767 766 765 764 763 762 760 759 757 755 752 749 745 742 739 735 732 728 724 719 715 711 707 702 698 694 690 687 683 680 677 674 671 668 666 663 662 660 659 658 658 657 657 658 659 660 662 664 666 668 670 673 676 679 681
749 750 752 753 755 757 758 760 761 763 764 766 767 768 769 769 769 769 769 769 770 770 771 771 771 771 770 770 769 768 767 766 765 764 763 762 761 760 758 756 753 750 746 743 740 736 733 729 725 721 716 712 708 704 700 696 692 688 685 682 678 675 673 670 668 666 664 662 661 660 660 659 660 660 661 663 664 665 668 670 672 675 678 680 683
751 753 754 755 757 759 760 762 763 765 766 767 767 768 769 770 770 770 770 770 771 771 771 771 771 771 770 770 769 768 767 766 765 764 763 762 761 760 759 757 754 751 748 745 741 737 734 730 726 723 718 714 710 706 702 698 694 690 687 684 681 678 675 672 670 668 666 665 664 663 662 662 663 663 664 665 667 668 671 673 675 677 680 683 686
754 756 757 758 759 761 762 764 765 766 767 768 769 769 770 770 771 771 771 771 772 772 772 771 772 771 771 771 770 769 768 767 766 764 763 762 761 760 759 757 755 752 749 746 742 739 735 732 728 725 721 717 713 708 704 700 696 692 689 686 683 680 677 675 673 670 669 668 667 666 666 666 666 667 668 669 671 672 675 677 679 681 684 687 690
758 759 760 761 762 763 764 765 766 767 768 769 770 770 771 772 772 772 773 773 773 773 772 772 772 772 772 771 771 770 769 767 766 765 763 762 761 760 759 758 756 753 750 747 744 741 737 734 731 727 723 719 715 711 707 703 699 695 692 689 686 683 681 678 676 674 673 672 671 670 669 669 670 671 672 673 675 677 679 681 683 685 688 691 694
762 763 764 764 764 765 766 766 767 769 770 771 772 772 773 773 773 774 774 774 774 774 773 773 773 773 772 772 771 770 769 767 766 765 763 762 761 760 759 758 756 754 752 749 746 743 740 737 733 730 726 722 718 715 711 707 703 699 695 693 690 687 685 682 680 678 677 676 675 674 674 674 675 676 677 678 680 681 683 685 688 690 692 695 698
765 766 767 767 767 767 768 768 769 770 772 772 773 774 774 774 775 775 775 775 775 775 775 774 774 773 773 772 771 771 769 768 766 765 763 762 761 759 758 757 756 755 753 750 748 745 742 739 736 732 729 725 722 718 714 710 707 703 700 697 694 692 689 687 685 683 682 681 680 680 679 679 680 681 682 684 685 686 688 691 693 695 697 700 703
769 770 770 770 770 770 770 770 771 772 773 774 775 776 776 776 777 777 777 777 776 776 776 775 775 774 773 772 772 771 770 768 767 765 763 762 761 759 758 757 756 755 753 751 749 747 745 742 739 735 732 728 725 722 718 715 711 708 704 701 699 696 694 692 690 689 688 686 686 685 685 685 685 687 688 689 690 692 694 696 697 699 702 704 707
Wind_Speed
31 33 36 37 39 40 39 38 38 36 35 34 32 30 28 28 26 24 22 20 17 15 14 13 12 11 9 6 3 1 1 2 4 6 7 7 8 9 10 11 12 13 13 14 15 15 16 17 17 17 16 15 14 13 13 12 11 11 10 10 10 9 9 10 8 11 19 18 15 17 18 18 19 17 16 16 16 17 19 22 24 25 25 25 26
35 34 34 37 40 41 40 39 39 37 36 35 33 31 30 29 27 26 24 22 20 18 16 15 13 11 8 5 3 2 2 2 4 6 7 7 9 10 11 12 13 13 14 14 15 15 15 15 16 16 15 15 15 14 13 13 12 12 11 10 11 10 10 11 11 11 16 20 17 17 17 16 17 16 14 15 16 17 18 20 22 23 23 24 25
34 33 34 38 41 39 36 36 37 38 37 36 35 33 31 30 29 27 26 24 22 20 18 17 15 12 8 6 4 4 3 3 5 6 6 8 9 10 11 12 13 14 14 15 15 16 15 15 15 14 14 15 15 15 14 14 14 14 14 13 12 13 11 11 12 12 14 19 19 17 15 14 14 16 16 17 18 19 19 18 19 20 21 23 25
29 30 34 38 36 30 28 30 33 36 37 37 37 34 32 32 30 28 26 25 23 21 20 18 16 13 10 8 6 5 4 4 5 6 7 8 9 9 10 12 13 14 14 15 15 16 16 15 15 14 13 14 15 15 15 15 15 15 15 15 14 15 14 12 12 12 14 18 20 19 17 18 18 18 18 19 20 20 19 18 18 19 20 21 24
25 27 31 35 33 30 31 33 33 35 37 37 37 36 34 33 30 28 27 25 24 23 21 19 16 14 12 10 8 6 5 5 5 6 6 7 8 9 10 11 12 13 14 14 15 15 15 16 15 14 14 14 15 15 16 16 16 15 14 15 14 14 14 13 12 13 13 16 20 22 20 20 20 19 17 17 18 19 19 19 19 20 21 21 21
22 25 29 33 35 38 39 37 37 38 38 36 35 35 35 32 30 28 27 25 25 24 21 19 16 14 12 10 9 7 6 5 4 5 5 6 7 9 9 11 12 13 13 14 15 15 16 16 16 15 15 16 16 17 17 17 16 16 15 15 15 15 15 14 13 13 15 16 20 21 20 18 19 19 18 16 17 19 20 22 23 23 22 21 20
18 23 28 32 34 37 38 37 38 39 39 38 36 35 34 32 30 28 26 26 26 24 21 18 15 13 12 11 9 7 6 4 3 3 4 6 7 9 10 12 13 13 14 14 15 15 16 17 18 18 17 18 18 19 18 18 18 18 18 18 18 17 17 18 17 17 17 18 19 20 19 17 17 18 18 17 18 19 20 22 23 23 21 20 21
13 19 25 30 32 33 34 35 37 38 39 39 36 35 35 32 30 28 26 26 26 23 20 17 15 13 11 10 9 7 5 4 4 3 5 7 9 11 12 13 14 15 15 16 16 16 17 18 19 19 20 20 20 20 20 20 20 21 21 21 20 20 20 19 19 19 18 18 18 19 19 17 16 18 19 18 18 18 18 18 19 20 20 19 20
12 15 21 27 30 31 31 32 33 34 36 37 37 37 36 33 31 29 28 27 25 22 20 17 15 14 13 10 8 7 6 5 4 4 6 8 10 11 12 12 13 14 15 16 17 17 18 19 20 21 21 21 22 22 22 21 22 23 23 23 23 22 21 19 18 18 18 17 17 18 18 17 16 16 17 17 16 16 16 15 15 18 18 17 19
16 13 18 24 28 29 30 30 31 34 36 37 38 37 36 33 31 30 29 27 24 22 20 18 17 16 14 12 9 8 7 6 4 5 6 8 9 9 10 10 11 12 14 15 17 18 18 20 21 22 22 23 23 24 24 24 24 24 25 25 24 25 24 22 19 18 18 19 18 17 17 18 17 16 17 18 17 18 17 16 16 17 17 15 16
20 14 16 21 24 26 28 30 32 35 37 39 39 39 38 35 33 31 30 27 24 22 20 18 17 16 14 12 10 9 7 5 4 5 6 7 8 9 9 10 10 11 13 15 17 19 20 21 22 22 23 23 24 25 25 25 25 25 26 26 26 26 26 25 22 20 19 19 19 18 17 18 19 19 18 18 19 19 18 18 17 16 14 11 9
23 18 15 17 21 24 27 30 32 35 38 40 38 35 36 36 34 32 30 27 24 22 21 20 18 16 14 12 10 9 7 6 5 5 6 7 8 9 9 10 11 12 14 16 19 20 22 23 23 23 23 24 24 25 26 26 27 27 27 27 27 27 27 27 26 23 21 20 21 21 21 20 21 21 19 19 19 19 19 19 17 15 14 11 9
26 23 18 16 19 23 26 29 32 34 35 34 28 25 28 30 30 28 26 24 23 21 20 19 18 16 13 12 11 9 8 7 6 5 7 8 8 8 9 10 11 13 16 18 20 22 23 24 24 25 25 25 25 25 26 27 28 28 28 28 29 29 28 28 28 27 26 25 24 24 24 22 23 23 21 19 19 19 19 18 18 17 16 15 14
27 26 22 17 17 21 26 29 30 30 29 26 23 24 28 29 28 26 24 23 22 21 20 19 16 14 13 11 11 10 9 8 7 7 8 9 9 9 10 11 13 15 17 20 22 23 24 25 26 26 27 27 27 27 28 28 29 29 29 29 29 29 29 28 28 28 29 29 29 28 27 25 25 26 24 22 22 22 20 19 18 18 17 15 15
28 27 24 20 18 20 24 27 26 26 26 24 23 27 31 30 29 27 25 23 22 21 20 17 14 13 12 12 11 10 9 8 8 9 10 10 11 11 12 14 15 17 19 21 23 23 24 25 26 27 28 28 28 28 28 29 30 30 30 29 29 29 29 28 28 28 29 29 31 31 29 28 27 27 27 25 24 24 24 24 23 22 21 20 19
27 26 25 22 19 20 23 25 26 25 26 27 28 32 33 30 28 28 28 25 22 20 18 15 13 13 13 12 12 11 10 10 10 11 12 12 13 13 14 16 17 18 21 22 23 24 24 25 27 27 28 29 28 28 28 28 30 30 31 31 30 30 30 30 29 30 31 31 32 32 31 31 30 30 29 28 27 26 26 27 26 24 23 21 20
25 25 25 23 21 21 22 24 26 26 27 28 30 34 35 32 31 31 29 25 22 20 18 15 13 14 14 14 13 12 11 12 12 12 14 15 15 15 16 17 18 20 22 23 23 24 24 25 27 28 28 28 28 28 28 28 29 30 30 30 30 30 29 28 28 30 30 32 33 33 33 34 33 33 33 33 33 32 30 31 29 24 19 15 14
26 26 25 24 22 21 21 24 26 28 29 30 31 33 34 34 33 30 27 25 23 20 16 15 14 15 15 14 13 13 13 13 14 15 16 17 16 16 17 18 20 22 24 24 24 24 24 26 27 28 29 29 29 29 28 28 30 31 30 29 29 30 28 27 28 29 29 30 31 31 33 33 33 33 34 34 34 33 33 35 33 26 21 17 16
27 26 25 24 21 20 21 24 27 29 30 33 35 35 35 35 32 27 25 24 21 18 17 16 15 15 15 14 14 14 15 15 15 17 18 18 18 17 17 19 21 23 25 25 25 24 25 27 28 28 29 30 30 29 28 27 29 31 30 29 31 31 29 27 29 29 29 30 30 31 32 33 33 33 34 34 34 33 35 37 35 29 26 24 21
27 25 24 22 19 19 21 25 29 30 33 37 39 38 36 34 29 25 24 22 20 19 17 15 13 13 14 14 15 16 16 17 17 19 20 20 19 18 18 20 23 25 25 25 25 25 26 28 29 29 29 30 29 29 29 28 29 32 31 29 30 30 28 28 28 28 29 30 30 30 31 31 31 32 31 31 32 31 33 35 36 35 32 28 25
25 23 21 19 18 19 22 27 30 32 36 39 39 35 31 28 25 24 23 21 19 17 15 13 12 12 13 14 16 17 18 18 19 20 21 21 21 19 19 21 23 25 25 25 25 26 27 28 29 29 29 30 30 30 30 30 30 32 32 31 32 32 31 32 31 29 30 30 30 30 31 30 30 29 29 30 30 30 31 32 35 37 35 31 27
23 21 19 18 18 19 24 28 30 33 36 37 35 31 27 25 23 23 22 20 17 16 14 12 11 11 12 15 17 18 18 20 21 21 22 22 21 20 21 23 24 25 26 26 27 28 28 29 30 29 29 30 31 32 33 33 33 34 34 35 37 37 36 37 34 32 31 31 30 31 30 29 30 30 29 30 30 30 31 32 33 35 36 35 32
22 20 19 19 18 20 25 25 25 29 33 33 30 28 27 26 24 22 22 21 18 14 12 9 9 11 12 14 16 17 18 19 21 21 21 21 20 20 22 24 25 27 28 29 29 29 30 29 29 29 30 31 33 35 36 36 37 37 38 39 40 40 40 40 36 33 33 31 30 31 30 29 30 30 28 29 30 30 30 31 33 34 35 35 34
22 21 20 19 19 22 25 24 25 26 28 29 28 27 27 28 25 23 21 19 15 12 10 9 9 10 11 12 13 14 16 18 18 19 20 20 20 22 23 26 29 31 31 31 31 30 30 30 30 31 33 34 36 37 38 38 39 38 39 39 40 40 41 40 37 34 33 31 30 31 30 29 30 30 29 29 30 30 29 30 31 31 30 28 27
22 22 21 20 20 21 23 27 29 26 25 28 28 27 27 26 23 21 18 16 14 11 9 7 6 7 9 10 12 14 16 18 18 19 19 20 22 24 26 30 32 33 32 32 32 31 31 32 33 34 34 35 36 37 36 36 36 37 37 37 38 38 37 35 34 33 32 30 30 30 30 29 29 30 31 32 31 30 30 30 31 31 29 27 27
22 22 19 18 19 22 24 27 27 25 25 29 28 26 25 22 20 18 16 13 12 9 6 5 3 4 6 9 12 15 18 19 19 19 20 21 23 26 29 32 33 32 31 31 31 31 31 32 32 32 33 34 35 34 34 34 34 35 35 35 35 35 33 32 32 31 30 30 30 30 30 28 28 29 31 31 30 29 29 29 30 31 30 28 27
21 19 17 20 26 29 30 29 26 23 24 25 25 23 20 17 15 15 14 12 11 9 6 4 2 3 6 9 13 17 19 20 21 21 23 24 26 28 31 33 32 30 28 29 30 30 30 30 30 31 32 33 32 32 32 32 32 32 32 32 31 31 31 32 32 32 32 31 31 30 28 27 27 28 29 29 29 29 29 28 27 26 27 28 27
18 17 24 30 32 33 33 30 27 24 22 20 20 19 17 15 14 13 12 13 13 10 7 4 1 3 7 11 15 18 20 20 21 23 25 26 27 29 30 30 28 27 27 28 30 29 29 29 29 29 29 28 28 28 28 27 28 28 29 29 29 30 30 30 30 31 32 32 31 30 28 26 26 26 27 28 28 29 30 30 28 27 27 28 26
18 25 33 35 34 32 30 29 29 27 23 20 18 16 16 16 16 14 13 13 12 9 6 3 3 6 9 12 14 16 19 20 21 22 24 25 26 27 26 25 25 25 26 26 27 27 27 27 26 25 24 24 24 24 24 24 25 26 26 27 27 28 28 28 29 30 31 31 30 29 28 26 25 25 25 26 27 28 29 30 30 30 29 28 24
25 33 36 36 34 32 29 29 29 26 23 21 19 17 16 16 15 15 15 13 10 7 5 4 5 7 9 11 12 14 16 18 20 22 23 24 23 22 22 22 23 24 24 24 25 25 24 23 22 22 22 23 22 22 22 23 23 24 25 26 26 27 27 28 29 30 31 30 29 28 26 25 24 24 24 25 25 26 28 30 31 30 28 25 23
29 32 33 34 34 33 33 31 27 24 23 22 21 20 19 17 15 15 13 11 8 5 4 4 6 7 9 10 12 13 15 17 20 21 21 20 20 20 21 22 22 22 23 23 23 22 21 21 21 21 22 22 22 22 23 23 23 24 25 25 25 26 26 27 28 29 29 28 28 27 26 24 24 23 23 23 24 25 27 30 31 29 27 25 23
32 30 30 33 35 36 34 30 27 26 25 23 21 21 21 19 16 13 11 8 5 4 4 5 6 7 9 10 13 15 16 18 19 19 18 18 18 19 21 22 22 23 23 23 21 20 20 20 20 21 22 22 22 23 24 24 24 25 25 24 24 25 25 26 27 26 26 26 26 26 25 25 24 24 23 23 23 23 24 26 27 27 26 25 23
37 34 31 33 34 32 30 29 28 27 25 22 21 21 20 19 16 13 10 7 5 5 5 5 6 8 9 10 12 14 16 18 19 18 17 17 18 19 21 22 22 23 23 22 20 20 21 21 21 23 24 23 24 25 25 25 25 25 25 25 25 26 27 27 26 25 24 25 25 25 25 24 24 24 23 23 23 22 21 22 23 25 24 22 21
38 36 33 32 30 28 28 29 28 25 22 21 20 19 18 17 16 13 11 9 7 7 6 4 5 7 7 8 10 13 16 19 19 18 18 18 19 20 21 21 22 24 24 23 22 22 22 23 23 24 25 25 25 25 25 25 26 26 26 26 26 27 27 27 25 23 23 24 24 25 25 24 24 23 22 22 23 23 22 21 21 22 22 20 20
32 31 30 29 27 27 29 29 26 23 22 21 19 19 18 16 14 12 9 7 7 8 7 5 4 5 6 7 10 14 18 20 21 21 20 20 20 21 20 20 21 23 24 23 23 23 24 24 24 25 26 26 26 26 26 26 26 26 26 26 26 27 26 25 23 21 20 21 23 24 24 24 24 24 23 22 22 21 21 21 21 21 22 21 19
28 28 27 27 29 29 29 27 25 24 23 22 21 20 18 15 12 9 6 4 6 9 8 5 3 3 4 6 9 14 19 22 23 24 23 22 22 22 20 20 20 21 22 23 24 24 25 26 26 26 27 27 27 27 27 27 26 26 25 26 25 25 25 25 23 21 19 19 21 23 24 24 24 24 23 22 22 22 21 21 21 22 23 22 20
28 27 27 28 29 30 28 26 25 24 24 22 21 18 15 13 10 6 3 4 7 9 8 5 4 3 4 6 10 15 19 22 25 25 25 26 25 23 20 20 21 21 22 24 26 26 27 27 27 27 27 27 27 27 27 27 27 26 25 25 25 24 24 23 22 21 19 18 19 21 23 24 24 24 23 22 21 21 21 21 22 22 22 22 20
26 26 28 29 29 29 28 26 25 24 23 21 19 16 13 10 7 4 4 7 10 9 7 5 4 5 5 7 11 14 18 22 26 27 28 28 26 22 20 21 22 22 23 25 27 27 27 28 28 28 28 28 27 27 27 26 26 26 25 25 24 23 22 21 20 20 18 18 18 19 21 23 24 24 24 23 21 20 21 22 21 19 20 21 21
24 26 28 28 27 27 27 26 24 23 21 19 16 12 10 6 3 4 8 11 11 9 7 6 6 6 6 8 11 14 18 22 25 25 26 26 25 22 20 21 23 24 25 26 27 27 28 29 29 29 29 28 28 28 27 26 25 25 25 24 23 22 20 19 19 19 18 17 17 16 18 21 23 23 23 23 22 21 20 20 20 20 20 20 21
24 25 25 24 24 25 25 24 22 20 18 15 12 9 5 3 3 7 12 13 11 9 7 7 7 6 6 7 11 14 16 19 21 22 21 22 24 24 22 22 24 26 27 28 28 28 28 30 31 30 29 29 28 28 27 25 24 25 25 23 21 20 20 19 18 18 17 16 15 13 13 16 20 22 22 22 22 21 21 21 22 23 23 22 22
23 22 20 20 21 22 22 19 17 15 13 11 8 5 4 5 9 12 13 12 11 9 8 7 6 4 4 6 9 11 12 14 18 20 19 20 22 24 24 25 26 27 28 30 30 29 30 31 31 31 30 30 30 29 27 26 25 25 24 23 21 20 19 18 16 15 15 14 12 9 9 12 17 20 21 22 22 22 22 22 22 23 24 24 25
20 18 17 17 18 19 18 16 14 12 10 8 6 6 8 11 13 13 12 11 10 9 7 5 3 1 4 6 7 9 10 11 15 18 19 20 22 24 26 28 29 29 29 30 30 30 30 30 31 31 31 31 31 30 29 28 27 26 25 23 21 20 19 17 15 13 12 10 7 5 5 10 16 19 20 22 22 22 23 23 23 24 24 25 27
19 18 18 17 17 17 16 14 12 11 9 9 10 10 12 13 12 10 9 9 8 7 5 3 2 2 4 5 7 8 9 10 13 16 18 20 21 24 26 29 30 30 29 29 29 30 30 30 31 31 31 31 31 31 29 28 27 26 24 23 21 19 18 17 15 13 10 7 3 1 5 9 13 17 19 21 22 22 23 23 24 25 26 26 28
19 18 18 17 17 16 15 13 13 13 12 13 13 13 12 12 11 10 9 9 8 6 4 2 2 3 5 6 7 9 11 11 12 14 16 18 20 22 25 28 29 30 29 28 28 30 30 30 31 32 32 32 32 31 29 27 26 24 23 21 20 19 17 16 15 12 8 4 1 4 7 9 13 16 18 20 21 22 23 24 25 26 27 27 27
18 17 17 17 17 17 16 16 16 15 15 15 15 13 12 11 10 10 10 9 7 6 4 4 4 5 6 7 9 10 12 12 12 12 15 17 18 19 23 26 28 29 29 28 28 29 30 30 31 32 33 33 33 32 30 28 25 23 21 20 18 17 16 14 12 10 6 3 4 7 9 11 14 16 17 19 21 22 23 24 26 27 27 26 26
17 18 18 19 19 19 18 18 17 16 15 14 14 13 12 11 10 10 9 8 7 6 5 6 6 7 8 9 10 11 11 12 12 12 13 15 16 17 19 23 26 27 27 27 27 28 29 30 31 31 32 33 33 32 31 28 25 23 21 19 17 15 14 12 10 8 6 5 7 9 11 13 15 17 18 19 21 22 23 24 26 26 26 26 26
20 20 20 20 20 19 18 17 15 15 14 13 12 12 11 10 10 9 8 8 7 7 7 8 8 9 9 9 10 11 12 12 12 12 12 13 14 15 16 20 23 25 26 27 28 28 29 30 31 31 32 32 33 33 32 30 27 24 22 20 18 17 14 12 10 10 9 8 10 13 15 16 18 19 20 22 23 24 25 25 25 27 27 27 28
20 20 20 20 19 18 17 15 14 14 12 11 11 11 11 10 10 10 10 9 8 8 8 8 9 9 9 9 10 11 11 11 12 13 13 13 12 13 14 16 19 22 23 25 28 29 29 30 31 32 32 33 33 34 33 31 29 26 23 21 19 17 15 14 13 13 13 13 15 17 19 21 21 22 23 24 25 26 26 26 26 28 28 28 28
19 18 18 17 17 16 15 14 13 12 11 11 11 11 11 11 11 11 10 10 10 9 9 8 8 8 9 9 9 10 11 11 12 13 14 14 12 12 11 13 15 18 20 23 26 28 29 30 31 32 33 33 33 33 34 33 31 28 25 21 18 17 17 16 17 17 18 19 20 22 23 24 25 25 25 26 26 27 27 27 27 28 28 28 28
17 17 16 16 16 15 14 15 15 13 12 12 12 12 12 12 12 12 12 11 10 10 10 9 9 8 9 9 9 10 11 11 12 13 14 14 13 12 10 11 12 14 16 19 23 25 27 29 31 32 33 33 33 33 34 34 32 29 25 21 18 18 18 19 19 21 22 23 25 26 26 27 28 27 27 27 28 28 28 28 27 28 28 27 27
19 17 16 16 16 15 15 15 15 14 13 13 13 13 13 13 12 13 13 13 13 13 12 12 11 10 9 9 9 9 10 11 12 13 13 14 14 13 11 10 10 11 13 16 19 21 24 27 30 31 32 33 33 32 33 34 32 29 26 23 20 20 20 20 21 23 24 25 27 28 29 29 29 28 28 28 28 29 29 29 29 29 28 28 27
Wind_Direction
228 223 221 225 229 229 228 228 227 228 228 228 229 230 232 231 228 226 223 220 218 216 215 217 216 212 207 202 198 197 0 15 11 359 353 357 1 0 360 359 359 358 353 350 347 343 340 338 337 339 338 337 336 335 333 333 329 323 319 315 312 318 315 303 295 287 283 280 279 278 284 298 304 305 307 303 297 295 293 287 285 285 284 285 285
230 225 220 224 231 231 228 228 228 227 227 227 227 229 231 231 230 227 223 219 216 216 216 214 211 207 203 203 219 249 289 328 338 337 338 346 351 355 359 360 359 357 353 349 347 342 339 336 335 336 335 332 332 330 328 327 326 321 316 311 306 310 318 310 300 294 290 289 289 287 286 293 296 294 302 311 309 305 300 293 288 286 286 288 288
231 227 222 224 230 232 229 228 227 226 226 226 226 226 229 230 230 228 224 218 214 213 212 209 204 203 206 218 241 263 285 306 316 321 328 337 346 353 356 355 353 352 349 347 345 342 338 335 333 332 329 326 325 325 324 322 320 315 310 307 303 302 308 307 296 291 293 294 296 297 294 294 293 291 292 296 303 308 307 302 296 290 285 285 287
233 229 225 226 230 233 233 231 229 226 226 226 225 225 227 228 228 227 222 217 212 208 205 203 200 201 210 224 238 256 278 295 307 316 326 337 344 348 348 346 344 343 342 342 341 339 336 333 331 330 326 320 317 318 318 317 315 311 307 303 300 298 299 299 293 290 293 296 297 298 297 296 294 293 293 290 288 294 300 302 300 296 289 283 283
243 233 225 224 227 233 237 235 231 227 226 224 223 223 225 226 224 222 219 215 210 204 199 197 198 202 210 219 227 239 260 279 295 314 329 338 342 342 341 338 335 335 334 333 332 331 330 327 326 326 322 315 312 311 310 310 308 306 303 302 300 299 297 294 290 289 291 294 296 297 299 299 296 291 291 291 283 283 289 295 298 300 298 290 284
253 241 229 225 227 231 234 231 227 226 224 222 222 221 223 223 219 216 215 211 205 200 197 196 198 202 206 210 215 221 233 258 286 308 324 332 333 333 329 326 326 324 323 322 322 321 320 319 318 317 313 309 307 307 307 306 303 301 300 300 300 300 298 295 292 291 291 291 292 294 296 298 298 293 289 288 283 280 282 288 293 297 299 298 294
260 246 235 232 231 230 229 226 224 223 221 220 219 219 220 218 213 211 210 207 202 198 197 197 199 202 202 200 202 206 213 232 263 286 304 312 315 316 316 317 317 315 315 315 315 315 314 312 311 309 305 303 301 302 302 301 300 299 298 297 297 295 293 292 291 290 289 287 285 287 289 290 291 292 290 288 285 279 276 280 287 291 294 299 301
281 253 240 235 233 231 230 227 223 221 219 217 215 215 216 213 208 206 203 200 200 199 198 199 198 197 196 193 192 192 193 201 219 250 283 302 309 312 313 313 312 311 311 310 310 309 308 306 305 303 301 299 298 297 297 296 297 296 296 297 296 293 290 289 288 287 284 282 279 281 284 286 285 287 291 291 284 275 270 270 277 285 292 298 300
317 267 246 237 236 235 233 228 222 218 215 213 211 212 211 206 202 200 197 196 198 199 200 201 197 191 185 183 183 185 190 199 219 263 295 310 317 319 318 316 314 313 312 311 309 306 303 301 299 298 297 296 294 292 291 291 292 291 292 294 293 291 289 286 285 285 282 279 278 279 280 281 282 284 287 286 282 279 278 272 270 278 288 296 299
341 294 259 247 243 237 231 226 220 214 212 211 211 209 205 200 196 193 192 193 194 194 196 197 196 190 183 180 182 190 200 213 241 286 311 325 332 337 338 334 329 324 322 320 318 314 311 306 302 299 297 294 291 290 288 288 287 286 287 288 288 287 285 283 280 278 279 278 277 277 277 278 278 279 279 280 284 289 291 289 284 281 283 289 295
341 319 281 262 250 237 229 223 217 213 212 212 210 206 201 197 193 189 190 190 190 191 191 190 191 189 185 184 189 198 209 226 259 296 322 338 346 352 357 354 348 343 338 334 330 327 323 318 313 307 301 296 293 290 289 288 285 284 284 283 282 281 279 278 277 274 273 273 273 272 272 274 276 276 276 279 282 284 287 293 294 286 276 272 278
332 325 304 277 255 239 228 220 215 213 212 211 209 204 197 191 186 184 185 184 184 185 185 186 186 186 187 188 193 203 215 237 264 297 324 338 347 354 0 0 355 350 346 341 336 333 328 323 319 313 306 301 297 292 289 287 285 284 283 282 280 278 275 273 272 271 270 269 269 267 266 270 275 274 274 277 280 282 284 288 291 285 275 266 258
324 320 312 291 264 246 234 223 216 212 209 208 207 198 188 183 178 178 179 179 179 179 181 184 184 185 190 193 197 209 226 247 267 296 316 324 334 344 351 352 348 345 343 340 337 334 329 324 319 314 311 306 300 294 290 288 286 284 283 281 279 276 273 271 269 268 268 267 266 264 261 264 269 271 273 275 276 278 279 280 282 282 278 270 264
319 315 311 299 274 254 240 229 219 212 207 205 200 192 186 179 174 176 178 176 176 178 179 182 183 189 199 203 210 223 237 250 267 292 306 311 318 327 334 337 335 335 334 334 333 331 328 324 317 313 311 308 302 297 293 290 288 286 284 281 278 275 273 271 268 266 265 264 264 264 264 263 263 267 271 272 272 273 274 275 277 279 277 272 274
314 311 308 300 282 260 245 232 221 213 206 200 193 186 181 173 171 176 179 176 177 179 179 181 189 198 206 215 224 232 239 249 267 287 297 302 307 313 320 324 326 326 326 327 328 326 325 321 316 311 309 306 303 299 296 293 290 287 284 281 278 275 272 269 267 266 264 263 263 264 266 265 264 265 268 269 271 271 270 271 270 270 274 278 281
308 307 304 297 284 266 249 233 222 213 203 196 189 179 172 169 173 177 175 173 175 178 180 187 198 205 212 223 232 236 243 254 267 282 293 298 300 304 312 317 318 318 319 321 321 320 320 318 313 309 306 305 303 301 297 294 291 288 285 282 279 276 273 271 270 267 265 264 264 264 264 265 265 265 265 265 266 270 274 273 268 265 268 273 274
302 302 299 293 284 269 251 233 221 210 199 191 183 174 170 172 175 173 169 168 172 176 183 191 202 211 217 225 233 242 251 258 265 279 290 293 294 298 306 311 312 312 313 315 315 314 315 315 311 308 304 302 302 301 298 294 291 289 287 285 282 278 275 274 273 270 268 268 267 266 265 265 264 265 264 263 263 267 271 271 269 268 268 266 263
296 297 295 292 285 269 248 230 217 207 195 185 176 172 171 172 172 170 167 167 170 175 185 194 203 213 220 228 240 251 259 263 267 277 286 290 290 295 303 307 307 308 309 310 311 310 311 312 311 306 300 298 298 298 296 293 289 288 288 287 284 280 278 277 276 274 273 271 269 267 265 265 264 263 263 262 260 259 258 259 261 263 264 261 259
290 291 293 295 288 268 243 223 211 201 188 179 174 171 170 169 168 168 166 165 170 178 188 194 202 213 224 236 247 255 263 268 272 278 286 289 289 293 302 305 303 306 308 308 308 308 308 309 308 303 299 297 295 295 294 291 287 286 285 284 281 279 279 279 277 276 275 272 268 265 264 264 264 264 263 262 259 254 251 252 252 251 251 253 254
284 287 291 294 285 261 234 213 202 192 180 173 170 168 166 164 162 164 166 170 176 181 184 192 204 217 230 241 249 256 263 269 275 280 285 288 289 293 301 304 304 307 309 307 306 305 305 305 304 301 298 296 294 294 293 290 287 285 283 279 277 278 280 280 278 276 274 271 267 266 265 264 263 262 262 261 259 254 250 249 247 245 245 247 247
281 285 289 288 275 251 222 202 193 185 174 167 162 160 159 159 161 167 173 176 175 175 180 193 208 222 237 245 251 258 264 270 279 286 287 287 289 293 300 307 310 311 308 306 304 303 303 303 301 299 297 295 295 294 293 290 287 283 279 275 275 277 279 279 278 276 274 271 269 267 266 264 263 261 260 259 258 255 253 250 246 243 241 241 242
278 281 283 277 263 236 209 196 189 180 169 160 155 155 156 160 164 171 174 171 169 174 183 195 212 231 244 248 252 260 267 273 282 288 290 291 292 296 304 312 318 316 311 307 304 303 302 301 300 299 297 296 296 295 293 290 286 282 278 276 275 275 276 276 276 275 273 271 269 266 263 261 260 259 257 257 256 255 252 249 245 244 243 242 240
275 274 272 266 250 221 203 193 182 170 162 155 153 155 159 165 168 170 170 168 168 171 179 194 217 234 245 250 256 266 275 283 289 296 303 306 303 303 309 317 322 320 313 307 304 303 301 300 299 299 299 298 296 294 291 288 285 280 277 276 275 274 273 272 270 268 267 266 265 263 261 259 257 256 254 253 255 255 252 249 244 240 240 240 238
269 264 261 255 236 213 198 183 171 168 166 159 153 155 165 173 172 166 164 165 163 165 175 192 214 233 249 263 276 287 298 305 310 315 320 321 318 317 319 322 322 319 313 307 304 303 302 301 301 300 300 298 296 293 290 287 284 281 279 279 277 275 272 269 265 262 259 258 257 257 257 255 252 252 252 252 255 255 253 251 246 238 235 238 241
261 256 254 243 220 200 183 171 170 175 172 161 156 162 170 172 166 160 160 159 159 164 173 186 212 243 262 282 303 317 323 325 327 329 329 328 326 324 322 320 318 316 312 308 305 305 303 303 302 301 300 298 295 292 288 285 284 283 282 281 279 274 270 266 262 258 254 252 252 252 252 250 247 248 251 252 253 253 251 249 247 245 246 250 253
258 251 241 219 189 170 161 163 169 171 164 160 160 163 163 160 156 158 160 158 157 157 155 166 213 265 286 306 321 328 332 333 332 333 333 331 327 323 319 318 317 316 314 310 308 308 306 305 303 301 299 296 293 290 288 287 287 287 286 283 279 273 268 262 258 253 250 248 249 249 248 247 246 247 249 248 248 249 248 244 241 242 244 247 249
255 240 204 173 162 157 156 162 167 163 156 156 155 152 151 152 154 157 155 150 148 144 141 161 214 281 308 325 333 334 335 335 335 335 334 329 325 323 321 320 321 320 316 313 311 310 307 306 304 301 299 297 294 292 291 290 290 289 287 285 281 275 269 264 258 253 250 249 249 249 248 247 246 245 244 244 244 245 245 242 239 238 240 241 242
239 200 164 154 153 154 155 159 160 151 143 144 146 147 148 147 143 144 141 138 137 138 148 166 222 322 331 340 342 338 337 340 341 340 335 330 327 325 324 324 324 321 317 315 314 313 311 310 307 304 302 300 297 294 293 292 290 289 287 285 283 279 276 270 263 257 254 252 251 251 251 248 245 242 240 240 241 241 240 238 237 239 240 239 237
197 162 150 146 145 148 151 152 150 144 143 149 153 153 149 143 135 131 130 133 136 137 138 121 36 359 353 355 351 345 346 348 346 340 333 328 326 325 325 326 326 323 320 320 320 318 315 312 309 306 304 301 298 296 295 293 292 290 289 288 286 284 281 274 266 260 256 253 250 249 248 245 242 240 238 237 238 238 236 233 232 234 236 234 234
161 149 145 142 142 146 146 144 144 146 151 155 152 145 140 139 136 133 132 138 143 138 116 75 38 13 4 3 0 355 352 347 340 335 329 325 324 325 326 329 329 328 329 330 327 321 315 311 309 309 306 303 301 299 297 295 294 292 292 293 291 289 284 277 270 263 258 253 249 246 245 242 239 236 235 234 235 235 233 231 230 231 230 230 232
144 141 141 141 144 144 142 145 154 157 154 151 148 142 137 135 137 137 135 136 137 131 106 73 52 29 11 3 1 360 355 345 338 335 332 330 332 334 334 335 337 338 340 337 329 319 313 311 309 309 307 303 302 301 300 298 296 295 295 295 293 291 287 281 275 267 257 250 247 244 241 238 235 234 233 233 234 234 229 226 227 228 228 227 228
133 134 138 142 144 145 148 156 162 157 150 150 150 145 141 139 141 143 141 139 140 137 117 92 63 36 15 6 5 3 357 349 343 341 340 341 343 343 343 343 345 347 346 341 332 322 317 314 311 310 308 306 304 304 303 301 299 297 296 294 293 292 289 286 283 274 259 249 245 241 238 235 234 233 231 230 232 230 224 220 223 226 227 226 227
132 136 141 143 144 149 157 161 156 149 148 151 149 146 146 145 145 148 153 158 163 152 132 101 55 30 17 13 12 7 358 353 352 351 352 352 351 349 349 349 351 352 350 344 335 328 323 319 315 313 311 308 308 308 305 303 301 299 296 294 293 292 293 293 292 282 264 251 244 240 238 235 232 231 229 227 228 228 226 224 224 224 224 225 225
132 137 141 145 150 157 158 154 149 147 148 149 149 150 151 149 150 156 163 168 168 157 139 97 47 28 20 21 19 10 3 2 3 3 2 1 358 355 354 354 354 355 353 346 338 330 326 321 317 315 313 311 311 310 307 305 304 301 298 296 295 295 296 296 295 287 270 254 245 240 237 235 231 228 225 224 224 226 228 229 226 221 221 223 222
132 139 146 153 159 159 155 151 148 148 149 149 150 151 150 149 151 155 160 162 156 147 133 101 58 30 26 31 24 14 12 12 12 12 11 8 4 2 360 356 353 352 351 345 338 331 325 321 318 317 316 314 313 312 310 308 307 304 301 299 297 298 299 297 295 292 279 260 248 241 237 234 231 226 223 222 220 221 223 225 224 222 222 221 214
146 152 158 162 161 157 155 153 151 150 152 152 150 149 148 149 149 150 155 155 139 134 129 116 90 47 34 32 22 17 18 17 16 17 16 12 9 7 2 355 349 344 342 339 336 331 327 323 320 319 318 316 315 315 314 312 310 308 306 304 301 300 300 298 297 297 290 273 257 245 237 233 229 224 221 220 219 220 221 221 221 221 220 215 201
160 161 162 163 161 158 156 154 153 155 156 155 154 153 151 151 149 145 142 144 139 137 136 131 115 86 56 31 19 19 20 18 19 21 19 16 13 10 2 354 348 342 337 336 336 332 328 326 324 322 320 319 319 318 317 316 315 313 312 311 308 305 304 304 302 300 295 285 270 253 239 232 228 223 219 217 216 218 219 217 218 217 212 203 187
166 165 162 161 160 157 156 156 158 159 159 158 157 155 149 146 143 128 132 148 149 144 137 123 97 70 49 28 16 15 18 18 19 19 17 15 12 6 358 354 351 345 339 337 336 334 331 330 328 326 325 324 324 323 322 321 320 320 319 318 316 315 315 314 312 308 302 293 281 264 245 234 227 221 217 214 212 213 213 211 208 201 191 183 175
161 159 158 158 158 157 158 160 162 162 161 159 156 149 143 142 140 144 152 153 151 146 134 112 86 61 40 21 11 11 15 17 17 15 12 11 9 4 358 354 351 348 344 340 337 336 334 334 333 332 331 330 330 329 328 327 327 327 326 325 323 323 325 325 321 317 310 300 291 276 254 235 224 217 213 209 206 203 202 198 192 182 174 169 166
148 149 151 155 158 159 161 163 162 160 157 153 148 145 148 155 154 156 157 155 151 145 128 102 82 64 36 13 6 7 11 14 15 13 10 8 6 4 0 355 351 348 346 343 341 339 338 337 337 336 335 335 335 335 334 333 334 334 333 332 330 331 333 334 330 325 319 309 299 287 262 235 217 208 203 200 199 198 194 189 185 178 170 163 156
140 144 149 155 158 159 159 157 154 149 146 145 147 154 163 156 150 152 155 153 149 141 123 101 89 69 24 0 358 2 6 12 15 15 14 11 7 5 1 356 352 349 347 347 345 343 341 341 341 340 340 340 341 341 341 341 341 340 339 339 339 338 340 341 339 334 326 314 301 288 260 224 206 198 194 192 194 195 190 185 180 171 162 155 148
139 143 145 147 150 151 147 142 138 137 137 139 142 146 149 148 148 149 149 145 142 140 132 119 111 57 354 349 354 359 4 11 15 16 17 16 12 8 4 359 355 353 351 350 349 348 346 345 346 345 345 345 346 347 348 348 348 347 345 345 346 346 347 347 346 342 334 319 301 276 230 202 193 190 188 185 184 183 178 172 166 158 151 147 143
135 133 132 134 136 138 136 132 130 129 127 128 129 131 136 139 138 136 132 126 126 133 134 119 90 358 342 347 356 0 4 11 14 15 17 18 14 10 6 3 0 359 356 354 354 354 352 350 351 352 351 351 352 353 353 353 355 355 353 352 352 353 355 355 353 351 347 336 317 213 181 179 177 177 177 175 173 168 163 157 152 147 143 142 140
128 126 126 128 129 129 129 128 127 124 122 123 123 122 123 124 119 113 109 106 104 107 104 74 17 352 349 354 1 5 7 11 14 14 17 18 16 12 8 5 4 3 1 359 360 0 359 356 356 358 359 359 359 360 360 1 3 3 0 359 0 1 2 2 1 359 357 358 57 136 147 155 158 161 162 161 159 155 150 146 144 141 139 139 138
127 128 128 128 126 125 124 123 123 123 122 121 118 115 112 110 105 99 96 95 92 87 74 46 20 10 6 7 11 11 10 11 13 15 17 18 17 14 11 9 7 6 5 4 4 5 5 3 1 2 4 5 4 4 6 8 11 12 10 8 8 9 9 8 6 6 11 39 104 128 136 139 142 144 145 146 146 144 141 139 139 138 137 136 136
129 131 130 127 125 122 120 120 121 121 118 114 110 106 100 94 90 87 84 81 76 65 50 35 25 19 14 13 14 12 9 8 11 13 15 17 17 15 13 11 10 10 10 11 11 11 11 10 8 7 8 9 8 8 10 13 17 20 21 19 17 17 17 16 17 22 37 69 104 122 126 127 128 131 133 134 134 133 133 134 133 133 132 131 131
126 125 124 124 122 119 117 116 116 112 107 102 99 93 86 78 73 68 63 57 52 43 35 30 24 19 14 9 8 7 6 4 5 8 11 13 14 15 14 13 12 12 15 18 18 17 16 16 14 12 12 13 14 13 15 18 22 26 28 29 28 26 27 30 38 49 62 82 102 113 115 114 115 118 123 125 124 124 124 125 125 126 127 127 127
118 117 117 117 116 113 110 107 103 96 90 86 80 75 69 63 57 51 45 41 36 31 26 23 18 14 10 5 2 2 2 0 1 4 8 9 10 13 15 15 14 14 17 21 22 21 20 19 18 16 15 16 18 18 19 22 26 30 34 36 35 34 37 44 56 68 79 89 98 105 107 107 107 109 113 116 117 118 119 119 120 122 123 123 124
109 108 108 106 103 101 98 94 89 82 74 70 67 64 61 57 53 46 41 37 33 28 24 19 14 9 6 2 357 355 357 358 359 1 3 4 6 8 12 16 16 15 17 21 23 23 22 22 21 20 19 19 21 22 24 26 29 34 39 40 40 41 47 56 67 79 87 92 95 99 101 102 103 104 107 111 113 114 115 115 117 118 119 119 120
94 92 92 91 90 89 87 84 79 73 67 65 64 60 57 55 51 46 41 37 33 29 24 20 14 9 4 0 356 353 353 355 357 358 360 1 2 2 5 12 14 12 13 17 21 23 24 24 23 22 22 23 24 26 28 29 31 37 44 48 48 50 56 64 72 80 86 91 94 96 98 99 99 100 103 106 109 110 111 112 113 113 113 113 115
80 78 78 78 78 78 78 76 74 69 65 63 61 59 57 57 54 50 47 43 40 35 30 25 20 14 7 2 356 351 349 352 357 2 3 2 2 1 2 4 6 7 8 10 14 18 22 25 25 24 24 25 26 29 32 33 35 39 47 55 58 59 63 69 75 81 86 89 92 93 94 95 96 96 98 101 103 105 107 108 109 109 109 110 111